Time,TemperatureF,DewpointF,PressureIn,WindDirection,WindDirectionDegrees,WindSpeedMPH,WindSpeedGustMPH,Humidity,HourlyPrecipIn,Conditions,Clouds,dailyrainin,SolarRadiationWatts/m^2,SoftwareType,DateUTC
2013-07-21 11:42:00,71.0,-99.9,-100.00,West,279,2.0,2.0,0,-99.99,,,0.00,147.000000,,2013-07-21 18:42:00,
2013-07-21 12:11:00,71.0,-99.9,-100.00,West,279,2.0,2.0,0,-99.99,,,0.00,147.000000,,2013-07-21 19:11:00,
2013-07-21 12:22:00,71.0,-99.9,-100.00,West,279,2.0,2.0,0,-99.99,,,0.00,147.000000,,2013-07-21 19:22:00,
2013-07-21 12:32:00,71.0,-99.9,-100.00,West,279,2.0,2.0,0,-99.99,,,0.00,147.000000,,2013-07-21 19:32:00,
2013-07-21 12:42:00,80.0,-99.9,-100.00,West,279,2.0,2.0,0,0.00,,,0.00,188.000000,,2013-07-21 19:42:00,
2013-07-21 13:12:00,80.0,-99.9,-100.00,West,279,2.0,2.0,0,0.00,,,0.00,188.000000,,2013-07-21 20:12:00,
2013-07-21 13:22:00,80.0,-99.9,-100.00,West,279,2.0,2.0,0,0.00,,,0.00,188.000000,,2013-07-21 20:22:00,
2013-07-21 13:32:00,80.0,-99.9,-100.00,West,279,2.0,2.0,0,0.00,,,0.00,188.000000,,2013-07-21 20:32:00,
2013-07-21 13:42:00,87.0,-99.9,-100.00,West,279,2.0,2.0,0,0.00,,,0.00,657.000000,,2013-07-21 20:42:00,
2013-07-21 14:02:00,87.0,-99.9,-100.00,West,279,2.0,2.0,0,0.00,,,0.00,657.000000,,2013-07-21 21:02:00,
2013-07-21 14:11:00,87.0,-99.9,-100.00,West,279,2.0,2.0,0,0.00,,,0.00,657.000000,,2013-07-21 21:11:00,
2013-07-21 14:22:00,87.0,-99.9,-100.00,West,279,2.0,2.0,0,0.00,,,0.00,657.000000,,2013-07-21 21:22:00,
2013-07-21 14:32:00,87.0,-99.9,-100.00,West,279,2.0,2.0,0,0.00,,,0.00,657.000000,,2013-07-21 21:32:00,
2013-07-21 14:42:00,87.0,-99.9,-100.00,SW,222,2.0,2.0,0,-99.99,,,0.00,1055.000000,,2013-07-21 21:42:00,
2013-07-21 15:11:00,87.0,-99.9,-100.00,SW,222,2.0,2.0,0,-99.99,,,0.00,1055.000000,,2013-07-21 22:11:00,
2013-07-21 15:22:00,87.0,-99.9,-100.00,SW,222,2.0,2.0,0,-99.99,,,0.00,1055.000000,,2013-07-21 22:22:00,
2013-07-21 15:32:00,87.0,-99.9,-100.00,SW,222,2.0,2.0,0,-99.99,,,0.00,1055.000000,,2013-07-21 22:32:00,
2013-07-21 15:42:00,84.0,-99.9,-100.00,West,279,4.0,4.0,0,0.00,,,0.00,1074.000000,,2013-07-21 22:42:00,
2013-07-21 16:11:00,84.0,-99.9,-100.00,West,279,4.0,4.0,0,0.00,,,0.00,1074.000000,,2013-07-21 23:11:00,
2013-07-21 16:22:00,84.0,-99.9,-100.00,West,279,4.0,4.0,0,0.00,,,0.00,1074.000000,,2013-07-21 23:22:00,
2013-07-21 16:32:00,84.0,-99.9,-100.00,West,279,4.0,4.0,0,0.00,,,0.00,1074.000000,,2013-07-21 23:32:00,
2013-07-21 16:42:00,81.0,-99.9,-100.00,ENE,71,4.0,4.0,0,0.00,,,0.00,619.000000,,2013-07-21 23:42:00,
2013-07-21 17:01:00,81.0,-99.9,-100.00,ENE,71,4.0,4.0,0,0.00,,,0.00,619.000000,,2013-07-22 00:01:00,
2013-07-21 17:11:00,81.0,-99.9,-100.00,ENE,71,4.0,4.0,0,0.00,,,0.00,619.000000,,2013-07-22 00:11:00,
2013-07-21 17:22:00,81.0,-99.9,-100.00,ENE,71,4.0,4.0,0,0.00,,,0.00,619.000000,,2013-07-22 00:22:00,
2013-07-21 17:32:00,81.0,-99.9,-100.00,ENE,71,4.0,4.0,0,0.00,,,0.00,619.000000,,2013-07-22 00:32:00,
2013-07-21 17:42:00,83.0,-99.9,-100.00,West,279,2.0,4.0,0,0.00,,,0.00,360.000000,,2013-07-22 00:42:00,
2013-07-21 18:02:00,83.0,-99.9,-100.00,West,279,2.0,4.0,0,0.00,,,0.00,360.000000,,2013-07-22 01:02:00,
2013-07-21 18:12:00,83.0,-99.9,-100.00,West,279,2.0,4.0,0,0.00,,,0.00,360.000000,,2013-07-22 01:12:00,
2013-07-21 18:22:00,83.0,-99.9,-100.00,West,279,2.0,4.0,0,0.00,,,0.00,360.000000,,2013-07-22 01:22:00,
2013-07-21 18:32:00,83.0,-99.9,-100.00,West,279,2.0,4.0,0,0.00,,,0.00,360.000000,,2013-07-22 01:32:00,
2013-07-21 18:42:00,80.0,-99.9,-100.00,West,279,2.0,3.0,0,0.00,,,0.00,179.000000,,2013-07-22 01:42:00,
2013-07-21 19:02:00,80.0,-99.9,-100.00,West,279,2.0,3.0,0,0.00,,,0.00,179.000000,,2013-07-22 02:02:00,
2013-07-21 19:11:00,80.0,-99.9,-100.00,West,279,2.0,3.0,0,0.00,,,0.00,179.000000,,2013-07-22 02:11:00,
2013-07-21 19:22:00,80.0,-99.9,-100.00,West,279,2.0,3.0,0,0.00,,,0.00,179.000000,,2013-07-22 02:22:00,
2013-07-21 19:32:00,80.0,-99.9,-100.00,West,279,2.0,3.0,0,0.00,,,0.00,179.000000,,2013-07-22 02:32:00,
2013-07-21 19:42:00,72.0,-99.9,-100.00,West,279,2.0,2.0,0,0.00,,,0.00,249.000000,,2013-07-22 02:42:00,
2013-07-21 20:12:00,72.0,-99.9,-100.00,West,279,2.0,2.0,0,0.00,,,0.00,249.000000,,2013-07-22 03:12:00,
2013-07-21 20:22:00,72.0,-99.9,-100.00,West,279,2.0,2.0,0,0.00,,,0.00,249.000000,,2013-07-22 03:22:00,
2013-07-21 20:33:00,72.0,-99.9,-100.00,West,279,2.0,2.0,0,0.00,,,0.00,249.000000,,2013-07-22 03:33:00,